Paducah, KY

11:35 AM CDT on April 28, 2017 (GMT -0500)
Barkley Regional

Weather History for KPAH - March, 2012

Change the Weather History Date:

Sunday, March 11, 2012

  Actual Average Record
Temperature  
Mean Temperature 52 °F 47 °F  
Max Temperature 65 °F 57 °F 79 °F (2006)
Min Temperature 38 °F 36 °F 16 °F (1998)
Degree Days  
Heating Degree Days 13 18  
Month to date heating degree days 168 219  
Since 1 July heating degree days 2971 3515  
Cooling Degree Days 0 0  
Month to date cooling degree days 0 0  
Year to date cooling degree days 0 0  
Moisture  
Dew Point 42 °F    
Average Humidity 68    
Maximum Humidity 93    
Minimum Humidity 42    
Precipitation  
Precipitation 0.13 in 0.12 in 1.68 in (1943)
Month to date precipitation 1.98 1.30  
Year to date precipitation 7.72 8.89  
Snow  
Snow 0.00 in 0.10 in 2.00 in (1960)
Month to date snowfall T 0.4  
Since 1 July snowfall 0.7 8.9  
Snow Depth 0.00 in    
Sea Level Pressure  
Sea Level Pressure 30.20 in    
Wind  
Wind Speed 11 mph (SSE)    
Max Wind Speed 20 mph    
Max Gust Speed 25 mph    
Visibility 10 miles    
Events Rain    
T = Trace of Precipitation, MM = Missing Value Source: NWS Daily Summary

Daily Weather History Graph

Daily Weather History Graph

Search for Another Location

Airport or City:

Trip Planner

Search our weather history database for the weather conditions in past years. The results will help you decide how hot, cold, wet, or windy it might be!

Date:

Astronomy

Mar. 11, 2012 Rise Set
Actual Time 7:11 AM CDT 6:59 PM CDT
Civil Twilight 6:45 AM CDT 7:25 PM CDT
Nautical Twilight 6:15 AM CDT 7:55 PM CDT
Astronomical Twilight 5:44 AM CDT 8:25 PM CDT
Moon 11:15 PM CDT (3/11) 8:53 AM CDT (3/11)
Length of Visible Light 12h 39m
Length of Day
11h 48m
Waning Gibbous, 85% of the Moon is Illuminated
Mar 11
Waning Gibbous
Mar 14
Last Quarter
Mar 22
New
Mar 30
First Quarter
Apr 6
Full

Hourly Weather History & Observations

Time (CDT) Temp. Windchill Dew Point Humidity Pressure Visibility Wind Dir Wind Speed Gust Speed Precip Events Conditions
12:53 AM 45.0 °F 43.5 °F 28.0 °F 52% 30.30 in 10.0 mi ESE 3.5 mph - N/A   Clear
1:53 AM 42.1 °F 39.2 °F 28.0 °F 58% 30.29 in 10.0 mi ESE 4.6 mph - N/A   Clear
3:53 AM 37.9 °F - 30.9 °F 76% 30.28 in 10.0 mi Calm Calm - N/A   Clear
4:53 AM 41.0 °F 39.0 °F 30.0 °F 65% 30.27 in 10.0 mi SE 3.5 mph - N/A   Clear
5:53 AM 45.0 °F 41.2 °F 32.0 °F 60% 30.27 in 10.0 mi SSE 6.9 mph - N/A   Clear
6:53 AM 48.2 °F - 33.8 °F 58% 30.28 in 10.0 mi SSE 9.2 mph - N/A   Clear
7:53 AM 51.1 °F - 34.0 °F 52% 30.29 in 10.0 mi SSE 10.4 mph - N/A   Clear
8:53 AM 54.0 °F - 34.0 °F 47% 30.31 in 10.0 mi SSE 13.8 mph - N/A   Clear
9:53 AM 55.9 °F - 35.1 °F 45% 30.30 in 10.0 mi South 15.0 mph 21.9 mph N/A   Clear
10:53 AM 57.0 °F - 35.1 °F 44% 30.29 in 10.0 mi SSE 16.1 mph 21.9 mph N/A   Partly Cloudy
11:53 AM 57.0 °F - 36.0 °F 45% 30.28 in 10.0 mi SSE 15.0 mph 20.7 mph N/A   Overcast
12:53 PM 60.8 °F - 37.4 °F 42% 30.26 in 10.0 mi SSE 17.3 mph 24.2 mph N/A   Overcast
1:53 PM 61.0 °F - 39.0 °F 44% 30.22 in 10.0 mi SSE 12.7 mph 19.6 mph N/A   Overcast
2:53 PM 62.6 °F - 41.0 °F 45% 30.19 in 10.0 mi SE 13.8 mph - N/A   Overcast
3:53 PM 64.0 °F - 45.0 °F 50% 30.16 in 10.0 mi SE 12.7 mph - N/A   Mostly Cloudy
4:53 PM 63.0 °F - 46.0 °F 54% 30.15 in 10.0 mi SSE 12.7 mph - N/A   Overcast
5:53 PM 63.0 °F - 46.9 °F 56% 30.15 in 10.0 mi SSE 5.8 mph - N/A   Overcast
6:53 PM 59.0 °F - 50.0 °F 72% 30.13 in 10.0 mi SE 5.8 mph - 0.00 in Rain Light Rain
7:53 PM 57.2 °F - 51.8 °F 82% 30.13 in 8.0 mi SE 8.1 mph - N/A Rain Light Rain
8:53 PM 55.9 °F - 53.1 °F 90% 30.13 in 6.0 mi SE 10.4 mph - 0.05 in Rain Light Rain
9:53 PM 57.0 °F - 55.0 °F 93% 30.11 in 8.0 mi SSE 10.4 mph - 0.05 in Rain Light Rain
10:53 PM 57.9 °F - 55.0 °F 90% 30.09 in 10.0 mi SSE 12.7 mph 20.7 mph 0.00 in Rain Light Rain
11:53 PM 59.0 °F - 55.0 °F 87% 30.06 in 10.0 mi SSE 16.1 mph 24.2 mph 0.01 in   Mostly Cloudy
12:38 AM 60.8 °F - 55.4 °F 82% 30.06 in 10.0 mi SSE 12.7 mph - N/A   Mostly Cloudy
12:53 AM 60.1 °F - 55.0 °F 83% 30.05 in 10.0 mi South 18.4 mph 24.2 mph N/A   Overcast